FW9255 Weather Reports


time (UTC)temp
F
wind
direction
speed
knots
gust
knots
rain 1hr
in
rain 24hr
in
rain mn
in
humidity
%
barometer
mb
20260509134554 71 293 2.6 7.0 0.00 0.00 0.00 85 1012.1
20260509133053 70 0 1.7 7.0 0.00 0.00 0.00 87 1011.9
20260509131608 69 0 0.0 5.2 0.00 0.00 0.00 88 1012.0
20260509130128 69 315 1.7 7.0 0.00 0.00 0.00 89 1011.9
20260509124603 69 298 2.6 8.7 0.00 0.00 0.00 89 1012.0
20260509123126 69 0 0.0 7.8 0.00 0.00 0.00 89 1011.9
20260509121559 68 0 0.0 0.0 0.00 0.00 0.00 90 1011.8
20260509120107 68 0 0.0 0.0 0.00 0.00 0.00 90 1011.7
20260509114627 68 0 0.0 0.0 0.00 0.00 0.00 90 1011.5
20260509113136 68 0 0.0 0.0 0.00 0.00 0.00 90 1011.2
20260509111609 68 0 0.0 0.0 0.00 0.00 0.00 90 1010.9
20260509104557 68 0 0.0 0.0 0.00 0.00 0.00 89 1010.3
20260509103104 68 0 0.0 0.0 0.00 0.00 0.00 89 1010.0
20260509101600 69 0 0.0 0.0 0.00 0.00 0.00 88 1009.9
20260509100055 69 0 0.0 0.0 0.00 0.00 0.00 87 1010.0
20260509094600 70 0 0.0 0.0 0.00 0.00 0.00 87 1009.7
20260509093058 70 0 0.0 0.0 0.00 0.00 0.00 87 1009.2
20260509091557 71 0 0.0 0.0 0.00 0.00 0.00 86 1009.2
20260509084605 71 0 0.0 0.0 0.00 0.00 0.00 84 1009.1
20260509083054 71 0 0.0 4.3 0.00 0.00 0.00 84 1008.1
20260509081559 71 0 0.0 3.5 0.00 0.00 0.00 84 1007.6
20260509074557 71 0 0.0 4.3 0.00 0.00 0.00 85 1009.0
20260509073055 71 0 0.0 1.7 0.00 0.00 0.00 86 1010.0
20260509071555 70 0 0.0 7.8 0.00 0.00 0.00 87 1010.2
20260509070057 70 0 0.0 0.0 0.00 0.00 0.00 86 1010.7
20260509064600 70 0 0.0 0.0 0.00 0.00 0.00 86 1011.0
20260509063101 70 0 0.0 0.0 0.00 0.00 0.00 85 1011.6
20260509061607 70 0 0.0 0.0 0.00 0.00 0.00 85 1011.6
20260509054610 70 0 0.0 0.0 0.00 0.00 0.00 83 1011.4
20260509053104 71 0 0.0 0.0 0.00 0.00 0.00 82 1011.6
20260509051605 71 0 0.0 0.0 0.00 0.00 0.00 82 1012.2
20260509050057 71 0 0.0 0.0 0.00 0.00 0.00 82 1013.0
20260509044609 71 0 0.0 0.0 0.00 0.00 0.00 82 1013.1
20260509043053 71 0 0.0 0.0 0.00 0.00 0.00 81 1011.3
20260509041558 72 0 0.0 0.0 0.00 0.00 0.00 81 1011.5
20260509040057 72 0 0.0 0.0 0.00 0.00 0.00 80 1011.5
20260509034555 71 0 0.0 0.0 0.00 0.00 0.00 81 1010.7
20260509033056 72 0 0.0 0.0 0.00 0.00 0.00 81 1010.5
20260509031608 72 0 0.0 0.0 0.00 0.00 0.00 81 1011.8
20260509030057 72 0 0.0 0.0 0.00 0.00 0.00 81 1012.0
20260509024557 72 0 0.0 0.0 0.00 0.00 0.00 80 1011.1
20260509023103 72 0 0.0 0.0 0.00 0.00 0.00 79 1010.6
20260509021555 72 0 0.0 0.0 0.00 0.00 0.00 79 1009.9
20260509020058 72 0 0.0 0.0 0.00 0.00 0.00 78 1009.4
20260509014554 72 0 0.0 0.0 0.00 0.00 0.00 77 1009.6
20260509013100 73 0 0.0 0.0 0.00 0.00 0.00 76 1009.4
20260509011558 73 0 0.0 0.0 0.00 0.00 0.00 75 1009.8
20260509004608 74 0 0.0 0.0 0.00 0.00 0.00 73 1009.6
20260509003102 74 0 0.0 0.0 0.00 0.00 0.00 72 1009.2
20260509001556 75 0 0.0 0.0 0.00 0.00 0.00 71 1009.0
20260509000056 75 0 0.9 9.6 0.00 0.00 0.00 70 1009.1
20260508234557 76 0 0.0 5.2 0.00 0.00 0.00 69 1009.2
20260508233059 76 0 0.0 7.0 0.00 0.00 0.00 67 1009.5
20260508231558 77 0 0.0 5.2 0.00 0.00 0.00 67 1009.6
20260508230125 77 0 0.0 6.1 0.00 0.00 0.00 66 1009.4
20260508224603 77 0 0.0 7.0 0.00 0.00 0.00 66 1009.4
20260508223057 76 148 0.0 7.0 0.00 0.00 0.00 66 1009.8
20260508221555 77 0 0.0 7.8 0.00 0.00 0.00 66 1009.8
20260508220119 77 0 2.6 9.6 0.00 0.00 0.00 66 1009.8
20260508214557 77 0 1.7 8.7 0.00 0.00 0.00 64 1009.9
20260508213054 77 0 0.9 8.7 0.00 0.00 0.00 65 1009.9
20260508211555 77 213 0.9 7.0 0.00 0.00 0.00 66 1010.0
20260508210057 77 0 1.7 8.7 0.00 0.00 0.00 65 1009.9
20260508204601 76 136 0.0 6.1 0.00 0.00 0.00 66 1010.3
20260508203056 75 0 0.0 7.0 0.00 0.00 0.00 67 1011.7
20260508201555 76 0 0.0 5.2 0.00 0.00 0.00 66 1011.9
20260508200101 77 0 0.0 3.5 0.00 0.00 0.00 66 1011.8
20260508194555 76 0 0.0 0.0 0.00 0.00 0.00 66 1011.9
20260508193106 78 0 0.0 4.3 0.00 0.00 0.00 64 1012.0
20260508191555 78 0 0.0 7.8 0.00 0.00 0.00 64 1012.0
20260508190106 78 0 0.0 1.7 0.00 0.00 0.00 62 1012.1
20260508184556 77 0 0.0 6.1 0.00 0.00 0.00 64 1012.3
20260508183055 76 0 0.0 1.7 0.00 0.00 0.00 66 1012.3
20260508181611 76 0 0.0 2.6 0.00 0.00 0.00 66 1012.8
20260508180108 76 153 0.0 7.0 0.00 0.00 0.00 64 1013.1
20260508174625 75 0 0.0 0.0 0.00 0.00 0.00 66 1013.6
20260508173101 74 0 0.0 4.3 0.00 0.00 0.00 67 1013.5
20260508171603 73 0 0.0 7.0 0.00 0.00 0.00 68 1013.7
20260508170113 72 0 0.0 5.2 0.00 0.00 0.00 69 1014.0
20260508164603 71 129 0.0 7.0 0.00 0.00 0.00 69 1014.3
20260508163108 69 0 1.7 7.8 0.00 0.00 0.00 71 1014.8
20260508161602 67 0 0.0 3.5 0.00 0.00 0.00 74 1015.0
20260508160105 66 0 0.0 0.0 0.00 0.00 0.00 77 1015.2
20260508154555 66 0 0.0 0.0 0.00 0.00 0.00 81 1015.4
20260508153103 65 0 0.0 0.0 0.00 0.00 0.00 82 1015.5
20260508151554 65 0 0.0 0.0 0.00 0.00 0.00 80 1015.5
20260508150101 65 0 0.0 0.0 0.00 0.00 0.00 76 1015.8
20260508144557 65 0 0.0 0.0 0.00 0.00 0.00 79 1015.6
20260508143102 64 0 0.0 0.0 0.00 0.00 0.00 81 1015.6
20260508141600 64 0 0.0 0.0 0.00 0.00 0.00 82 1016.1
20260508140101 63 0 0.0 0.0 0.00 0.00 0.00 82 1015.9